FW3579 Weather Reports


Display with metric or nautical units.
time (UTC)temp
F
wind
direction
speed
MPH
gust
MPH
rain 1hr
in
rain 24hr
in
rain mn
in
humidity
%
barometer
mb
20260510101509 59 360 7.0 14.0 0.00 0.00 0.00 51 1018.7
20260510100005 59 360 6.0 17.0 0.00 0.00 0.00 51 1019.0
20260510094504 59 360 8.0 15.0 0.00 0.00 0.00 50 1019.0
20260510093002 59 360 8.0 18.0 0.00 0.00 0.00 50 1019.1
20260510091559 59 360 6.0 16.0 0.00 0.00 0.00 50 1019.3
20260510090100 59 360 6.0 15.0 0.00 0.00 0.00 50 1019.3
20260510084558 59 360 5.0 17.0 0.00 0.00 0.00 50 1019.2
20260510083056 58 360 7.0 16.0 0.00 0.00 0.00 51 1019.4
20260510081554 58 69 5.0 18.0 0.00 0.00 0.00 50 1019.5
20260510080059 59 360 7.0 13.0 0.00 0.00 0.00 46 1019.5
20260510074601 58 26 5.0 14.0 0.00 0.00 0.00 44 1019.5
20260510073049 58 78 8.0 14.0 0.00 0.00 0.00 44 1019.6
20260510071545 57 360 7.0 15.0 0.00 0.00 0.00 45 1019.8
20260510070052 56 360 7.0 12.0 0.00 0.00 0.00 46 1019.7
20260510064538 55 360 6.0 15.0 0.00 0.00 0.00 46 1019.7
20260510063039 54 65 4.0 12.0 0.00 0.00 0.00 48 1019.6
20260510061531 53 360 5.0 11.0 0.00 0.00 0.00 49 1019.7
20260510060032 53 360 4.0 11.0 0.00 0.00 0.00 53 1019.8
20260510054525 52 69 3.0 9.0 0.00 0.00 0.00 56 1019.8
20260510053023 51 360 3.0 9.0 0.00 0.00 0.00 57 1019.7
20260510051522 51 360 3.0 6.0 0.00 0.00 0.00 58 1019.8
20260510050020 51 360 3.0 6.0 0.00 0.00 0.00 58 1019.5
20260510044518 51 38 2.0 4.0 0.00 0.00 0.00 58 1019.7
20260510043017 51 360 2.0 6.0 0.00 0.00 0.00 58 1019.8
20260510041514 51 55 4.0 8.0 0.00 0.00 0.00 58 1019.6
20260510040016 51 360 4.0 9.0 0.00 0.00 0.00 60 1019.6
20260510034513 51 360 3.0 8.0 0.00 0.00 0.00 61 1019.6
20260510033011 51 360 4.0 11.0 0.00 0.00 0.00 62 1019.5
20260510031508 51 40 3.0 9.0 0.00 0.00 0.00 62 1019.7
20260510030006 51 42 4.0 6.0 0.00 0.00 0.00 61 1019.8
20260510024505 51 51 3.0 6.0 0.00 0.00 0.00 61 1019.9
20260510023002 51 360 4.0 6.0 0.00 0.00 0.00 60 1020.0
20260510021600 51 55 3.0 8.0 0.00 0.00 0.00 59 1020.1
20260510020006 52 54 2.0 6.0 0.00 0.00 0.00 57 1020.1
20260510014501 51 71 3.0 6.0 0.00 0.00 0.00 56 1020.2
20260510013001 51 49 4.0 7.0 0.00 0.00 0.00 56 1020.2
20260510011502 51 23 2.0 6.0 0.00 0.00 0.00 56 1020.1
20260510010103 52 360 2.0 6.0 0.00 0.00 0.00 56 1020.3
20260510004559 52 63 2.0 5.0 0.00 0.00 0.00 56 1020.2
20260510003104 52 360 2.0 8.0 0.00 0.00 0.00 56 1020.5
20260510001556 52 60 2.0 4.0 0.00 0.00 0.00 56 1020.6
20260510000100 53 61 2.0 5.0 0.00 0.00 0.00 55 1020.8
20260509234608 53 360 2.0 6.0 0.00 0.00 0.00 55 1020.7
20260509233057 53 360 3.0 6.0 0.00 0.00 0.00 55 1020.8
20260509231557 54 53 3.0 7.0 0.00 0.00 0.00 54 1020.9
20260509230057 54 360 4.0 8.0 0.00 0.00 0.00 54 1020.8
20260509224555 53 360 3.0 6.0 0.00 0.00 0.00 55 1021.0
20260509223059 54 360 2.0 6.0 0.00 0.00 0.00 55 1021.0
20260509221553 54 360 3.0 6.0 0.00 0.00 0.00 56 1021.0
20260509214550 54 71 2.0 5.0 0.00 0.00 0.00 55 1020.7
20260509213048 54 75 2.0 6.0 0.00 0.00 0.00 55 1020.8
20260509211550 55 26 3.0 6.0 0.00 0.00 0.00 55 1020.8
20260509210024 55 42 2.0 8.0 0.00 0.00 0.00 54 1020.7
20260509204529 55 34 3.0 8.0 0.00 0.00 0.00 54 1020.8
20260509203019 55 360 3.0 6.0 0.00 0.00 0.00 53 1020.7
20260509201517 56 360 2.0 8.0 0.00 0.00 0.00 53 1020.7
20260509200016 56 34 3.0 6.0 0.00 0.00 0.00 52 1020.7
20260509194515 57 42 3.0 8.0 0.00 0.00 0.00 52 1020.6
20260509193025 57 27 3.0 9.0 0.00 0.00 0.00 51 1020.5
20260509191514 58 28 3.0 14.0 0.00 0.00 0.00 49 1020.6
20260509190012 59 44 3.0 11.0 0.00 0.00 0.00 47 1020.4
20260509184511 60 33 3.0 9.0 0.00 0.00 0.00 43 1020.3
20260509183007 61 360 4.0 9.0 0.00 0.00 0.00 38 1020.0
20260509181506 62 360 4.0 12.0 0.00 0.00 0.00 35 1019.8
20260509180005 62 26 4.0 11.0 0.00 0.00 0.00 35 1019.9
20260509174504 63 360 4.0 12.0 0.00 0.00 0.00 38 1019.7
20260509173003 63 360 4.0 11.0 0.00 0.00 0.00 37 1019.8
20260509171506 64 63 3.0 9.0 0.00 0.00 0.00 36 1020.0
20260509170004 64 360 4.0 11.0 0.00 0.00 0.00 37 1020.1
20260509164501 65 360 4.0 11.0 0.00 0.00 0.00 38 1020.1
20260509163006 66 48 4.0 11.0 0.00 0.00 0.00 38 1020.1
20260509161501 66 47 4.0 12.0 0.00 0.00 0.00 38 1020.1
20260509160002 66 360 1.0 9.0 0.00 0.00 0.00 40 1020.0
20260509154501 67 360 2.0 8.0 0.00 0.00 0.00 40 1020.0
20260509153007 67 46 4.0 13.0 0.00 0.00 0.00 38 1019.8
20260509151503 67 360 4.0 15.0 0.00 0.00 0.00 39 1020.0
20260509150001 68 360 4.0 15.0 0.00 0.00 0.00 40 1020.0
20260509144613 68 23 4.0 12.0 0.00 0.00 0.00 38 1020.1
20260509143057 68 360 3.0 12.0 0.00 0.00 0.00 39 1020.3
20260509141556 67 360 2.0 11.0 0.00 0.00 0.00 38 1020.3
20260509140107 67 22 3.0 6.0 0.00 0.00 0.00 37 1020.4
20260509134554 67 74 2.0 8.0 0.00 0.00 0.00 36 1020.6
20260509133101 68 28 2.0 8.0 0.00 0.00 0.00 36 1020.9
20260509131558 66 360 2.0 10.0 0.00 0.00 0.00 36 1020.9
20260509130059 67 30 3.0 10.0 0.00 0.00 0.00 36 1021.0
20260509124555 68 243 1.0 5.0 0.00 0.00 0.00 34 1021.2
20260509123048 68 360 3.0 7.0 0.00 0.00 0.00 33 1021.4
20260509121558 69 76 1.0 9.0 0.00 0.00 0.00 34 1021.4
20260509120046 68 132 2.0 6.0 0.00 0.00 0.00 38 1021.5
20260509114545 68 61 2.0 9.0 0.00 0.00 0.00 37 1021.7
20260509113051 68 360 3.0 8.0 0.00 0.00 0.00 38 1021.8
20260509111543 68 119 2.0 6.0 0.00 0.00 0.00 34 1021.9
20260509110040 67 360 1.0 5.0 0.00 0.00 0.00 36 1022.1
20260509104538 67 183 1.0 5.0 0.00 0.00 0.00 36 1022.0
20260509103036 66 29 2.0 9.0 0.00 0.00 0.00 39 1022.1